To NAV CANADA Home Page Login to a new session Search on AWWS site Feedback and Comments Disclaimer Vers la page française équivalente Tips FAQ What's new on the site To the Forecasts and Observations / NOTAM section To "File a Flight Plan" website Publications and other links Update of the User's profile FIC Telephone Numbers My Weather Data Folder Route Weather Data Regional Weather Data Local Weather Data To the Forecasts and Observations / NOTAM section
Request Generated 05/29/2015 at 11:55:00 UTC . Weather information available at that time is displayed.

METAR/TAF

HOPE/BC    (show WxCam)

METAR CYHE 291100Z AUTO 08004KT 010V120 9SM CLR 15/13 A2998 RMK
SLP151=
METAR CYHE 291000Z AUTO 00000KT 9SM CLR 14/12 A2998 RMK SLP152=
METAR CYHE 290900Z AUTO 00000KT 9SM CLR 15/13 A2998 RMK SLP153=

CYHE - No TAF is issued for this station

Your time UTC time
Weather data provided by Environment Canada and NAV CANADA